AirNav   Everest Fuels
 
 1150 users online  

60KS Alley Field Airport
Douglass, Kansas, USA

GOING TO DOUGLASS?


FAA INFORMATION EFFECTIVE 21 MAY 2020

Location

FAA Identifier: 60KS
Lat/Long: 37-30-50.0710N 097-00-01.1310W
37-30.834517N 097-00.018850W
37.5139086,-97.0003142
(estimated)
Elevation: 1260 ft. / 384 m (estimated)
Variation: 07E (1985)
From city: 1 mile E of DOUGLASS, KS
Time zone: UTC -5 (UTC -6 during Standard Time)
Zip code: 67039

Airport Operations

Airport use: Private use. Permission required prior to landing
Activation date: 02/1987
Control tower: no
ARTCC: KANSAS CITY CENTER
FSS: WICHITA FLIGHT SERVICE STATION
Attendance: UNATNDD
Wind indicator: yes
Segmented circle: no

Airport Communications

WX AWOS-3PT at 3AU (10 nm N): 124.175 (316-733-6696)
WX AWOS-3PT at BEC (15 nm NW): 119.45 (316-515-7116)
WX AWOS-3 at 1K1 (17 nm N): 118.3 (316-530-6004)
WX ASOS at AAO (18 nm NW): 134.025 (316-636-2541)
WX AWOS-3P at EQA (18 nm NE): 120.875 (316-322-8095)

Nearby radio navigation aids

VOR radial/distance  VOR name  Freq  Var
ICTr110/31.0WICHITA VORTAC113.8007E

 
NDB name  Hdg/Dist  Freq  Var  ID
NEWTON153/35.528106EEWK . .-- -.-

Airport Services

Runway Information

Runway 17/35

Dimensions: 1200 x 75 ft. / 366 x 23 m
Surface: turf
RUNWAY 17  RUNWAY 35
Traffic pattern: rightleft

Airport Ownership and Management from official FAA records

Ownership: Privately-owned
Owner: LAWRENCE ALLEY
1220 E. 8TH
DOUGLASS, KS 67039
Phone 316-747-2510
Manager: LAWRENCE ALLEY
1220 E. 8TH
DOUGLASS, KS 67039
Phone 316-747-2510

Airport Operational Statistics

Aircraft based on the field: 2
Single engine airplanes: 2
    

Additional Remarks

FOR CD CTC WICHITA APCH AT 316-350-1520.

Instrument Procedures

There are no published instrument procedures at 60KS.

Some nearby airports with instrument procedures:

3AU - Augusta Municipal Airport (10 nm N)
KIAB - Mc Connell Air Force Base (14 nm NW)
KCEA - Cessna Aircraft Field Airport (14 nm NW)
KBEC - Beech Factory Airport (15 nm NW)
1K1 - Lloyd Stearman Field Airport (17 nm N)
KAAO - Colonel James Jabara Airport (18 nm NW)
KEQA - El Dorado/Captain Jack Thomas Memorial Airport (18 nm NE)
 
Loc | Ops | Rwys | IFR | FBO | Links
Com | Nav | Svcs | Stats | Notes
Area around 60KS (Alley Field Airport)
 
Road maps at: MapQuest Bing Google
 
Aerial photo
No photo
 
Sectional chart

 
Airport distance calculator
Flying to Alley Field Airport? Find the distance to fly.

From to 60KS

Sunrise and sunset
Times for 25-May-2020
 Local
(UTC-5)
 Zulu
(UTC)
Morning civil twilight05:4210:42
Sunrise06:1211:12
Sunset20:3801:38
Evening civil twilight21:0802:08

Current date and time
Zulu (UTC)  25-May-2020 16:38:56
Local (UTC-5)  25-May-2020 11:38:56
 
METAR
K3AU 
10nm N 
251615Z AUTO 17004KT 2 1/2SM RA BKN005 OVC012 17/17 A2987 RMK AO2 VIS 1 3/4V4
KIAB 
14nm NW 
251611Z AUTO 23007KT 10SM -DZ FEW005 BKN011 OVC018 18/17 A2986 RMK AO2 RAE07DZB07 CIG 003V011 CIG 004 RWY01 SLP104 $
KBEC 
15nm NW 
251615Z AUTO 20006KT 4SM +RA OVC005 18/17 A2986 RMK AO2 P0003 T01750167
K1K1 
17nm N 
251615Z AUTO 21004KT 7SM DZ BKN006 OVC024 18/17 A2986 RMK AO2 T01750170
KAAO 
18nm NW 
241654Z AUTO 14007KT 10SM FEW070 OVC090 21/17 A2983 RMK AO2 RAB18E44 SLP092 P0001 T02110167
KEQA 
18nm NE 
251615Z AUTO 26005KT 5SM -RA BKN010 BKN016 OVC023 19/17 A2986 RMK AO2
TAF
KIAB 
14nm NW 
251509Z 2515/2621 VRB06KT 9999 FEW020 SCT030 BKN040 QNH2985INS TEMPO 2515/2518 19009KT 6000 -SHRA BR FEW006 SCT015 BKN020 BECMG 2520/2521 32009KT 9999 SCT020 BKN030 QNH2983INS TEMPO 2521/2524 33012KT 8000 -SHRA BR OVC010 BECMG 2523/2524 34009KT 9999 SCT004 BKN010 QNH2989INS BECMG 2611/2612 33009KT 9999 SCT020 BKN030 520753 QNH2994INS BECMG 2614/2615 34012KT 9999 FEW040 FEW250 QNH2993INS TX20/2520Z TN13/2605Z LAST NO AMDS AFT2515 NEXT 2610
NOTAMs
Click for the latest NOTAMs
NOTAMs are issued by the DoD/FAA and will open in a separate window not controlled by AirNav.

 

 
 

Would you like to see your business listed on this page?

 If your business provides an interesting product or service to pilots, flight crews, aircraft, or users of the Alley Field Airport, you should consider listing it here.  To start the listing process, click on the button below
 
Add a business
 

Other Pages about Alley Field Airport

Update a link
 
Copyright © AirNav, LLC. All rights reserved. Privacy Policy  Contact